Terminal Aerodrome Forecast
Issued by NWS

Home | Current Version | Previous Version | Text Only | Print | Product List | Glossary On
Versions: 1 2 3 4 5 6 7 8 9 10 11 12 13 14 15 16 17 18 19 20 21 22 23 24
097
FTUS41 KGYX 251257 AAA
TAFRKD
TAF AMD
KRKD 251257Z 2513/2612 08003KT P6SM FEW004
     FM251400 08012G18KT P6SM SCT020 BKN050 OVC080
     FM251800 08013G20KT 5SM -SHRA BR BKN012 OVC025
     FM252000 07014G24KT 3SM -RA BR BKN007 OVC012
     FM260000 07018G28KT 1 1/2SM -RA BR OVC004
      AMD LTD TO CLD VIS AND WIND=

USA.gov is the U.S. government's official web portal to all federal, state and local government web resources and services.